Погода в Верхнеимбатске

Погода в Верхнеимбатске : погода сейчас, прогноз погоды и архив. Всё, что Вы хотите узнать о погоде в Верхнеимбатске!

Хотите узнать прогноз погоды в Верхнеимбатске? Тогда Вам сюда: Погода в Верхнеимбатске

Поиск расширенной информации на нашем сайте:

Другие новости

Новости СМИ2

Главная страница сайта

Новости сайта

03.07.2017

Напоминаем, что на нашем специализированном сайте Метеоцентр.Азия вы можете получить высокодетализированные автоматические прогнозы погоды по пунктам России, СНГ и мира в авиационном формате (включающие направление и скорость ветра, видимость, явления погоды, количество и форму облачности, нижнюю и верхнюю границу облачности).

Рекомендуем: Что представляют из себя цветы в шляпных коробках

Погода в Верхнеимбатске - сегодня

Время (UTC), дата Ветер
(°,м/с) 
Видим.   Явления Облачность Т
(°С)
Тd
(°С)
f(%) Тe
(°С)
Pmin
(гПа)
dP
(гПа)
Po
(мм)
O2
(г/м3)
Тmin Tmax R s Состояние
почвы
21 16.09.17 310 (СЗ) н/о    ясно 
+0.4 -1.9 85 +1  1013.6  0.8  756  304           
00 17.09.17 040 (СВ) 20000 м    ясно 
-2.2 -2.8 96 -2  1014.1  0.5  756  308  -2.2         
03 17.09.17 200 (Ю) 20000 м    3/0 верхняя 
[Ci fib]
+2.6 -0.1 82 +3  1014.5  0.5  757  302  -2.8         
06 17.09.17 170 (Ю) 20000 м    8/0 верхняя 
[Ci sp]
+6.8 +0.8 66 +7  1014.7  0.2  757  297           
09 17.09.17 100 (В) 20000 м    10/8 600 м средняя 
[Cu Sc|As trans]
+8 +1.1 62 +8  1013.1  -1.5  756  296           
12 17.09.17 100 (В) 20000 м    10/3 600 м средняя 
[Sc|Ac As]
+7.4 +1.5 66 +7  1011.9  -1.2  755  296    +9.4       
15 17.09.17 120 (ЮВ) н/о  слаб. ливневой дождь  10/10 600 м кучево-дожд. 
[Cb cap]
+6.5 -0.6 60 +6  1010.2  -1.8  753  297           
18 17.09.17 090 (В) н/о  {ливн. осадки}  10/10 600 м кучево-дожд. 
[Cb cap]
+3.8 +1.2 83 +3  1009  -1.2  753  299           
21 17.09.17 090 (В) 3{10}  н/о    10/10 600 м кучево-дожд. 
[Cb cap]
+4 +1.2 82 +3  1002.5  -2.8  750  298           
00 18.09.17 090 (В) 4{10}  20000 м    10/10 600 м кучево-дожд. 
[Cb cap]
+4.2 +0.8 79 +2  1004.6  -1.6  749  297  +3.7    0.5     
06 18.09.17 060 (СВ) 10 км  слаб. дождь  10/10 300 м 
[Frnb|Ns]
+3 +2 93 +2  1004  0.1  749  298           
09 18.09.17 050 (СВ) 10 км  слаб. дождь  10/5 300 м средняя 
[Frnb|As trans]
+4.4 +3.4 93 +4  1004.5  0.5  749  296           
12 18.09.17 тихо ()   10 км  слаб. дождь  10/10 300 м 
[Frnb|Ns]
+4.8 +4.3 97 +5  1005.2  0.7  750  296    +5.1     
15 18.09.17 020 (С) н/о  {дождь}  10/10 300 м 
[Frnb|Ns]
+4.2 +3.7 97 +5  1005.6  0.4  750  297           
18 18.09.17 020 (С) н/о  {дождь}  10/10 600 м 
[Sc]
+3.4 +2.9 97 +4  1005.8  0.2  750  298           
21 18.09.17 360 (С) н/о    10/10 600 м 
[Sc]
+3.2 +2.7 97 +4  1006.2  0.4  750  298           
00 19.09.17 020 (С) 20000 м    10/10 600 м 
[Sc]
+3 +2.5 97 +4  1006.3  0.1  751  299  +2.9    0.0     
03 19.09.17 070 (В) 20000 м    10/10 600 м 
[Sc]
+4.6 +3.4 92 +5  1007.3  751  297  +2.8         
06 19.09.17 040 (СВ) 20000 м    10/10 600 м кучево-дожд. 
[Cb cap]
+5.7 +3.6 86 +5  1008.5  1.2  752  296           
09 19.09.17 360 (С) 20000 м  {дождь}  10/10 600 м 
[Sc]
+6.5 +3.9 83 +7  1009.7  1.2  753  296           
12 19.09.17 320 (СЗ) 20000 м  {дождь}  10/10 600 м 
[Sc]
+6.2 +3.9 85 +7  1011.4  1.7  754  297    +6.5  0.0     
15 19.09.17 010 (С) н/о    10/10 600 м 
[Sc]
+5.2 +3.5 89 +6  1012.8  1.4  755  298           
18 19.09.17 020 (С) н/о    10/0 средняя 
[As trans]
+4.2 +1.9 85 +4  1013.4  0.6  756  300           
21 19.09.17 010 (С) н/о    10/10 600 м кучево-дожд. 
[Cb cap]
+4.2 +2.2 87 +5  1013.9  0.5  756  300           
00 20.09.17 060 (СВ) 20000 м    10/10 600 м кучево-дожд. 
[Cb cap]
+4.2 +2.7 90 +5  1014.3  0.4  757  300  +3.8         
Время (UTC), дата Ветер
(°,м/с) 
Видим.   Явления Облачность Т
(°С)
Тd
(°С)
f(%) Тe
(°С)
Pmin
(гПа)
dP
(гПа)
Po
(мм)
O2
(г/м3)
Тmin Tmax R s Состояние
почвы

Для получения пояснительной информации подведите курсор к названию столбца.

ПОГОДА в Верхнеимбатске - архив

Всё, что Вы хотите узнать о погоде в Верхнеимбатске - удобно и подробно!

Выберите нужную дату (начиная с 1 января 2015* года) и нажмите кнопку "Найти".
Будут отображены архивные сводки погоды по пункту Верхнеимбатск, начиная с указанной даты.


Отображать данные в формате CSV (для использования в таблицах Excel)


Внимание! Наш архив погоды предназначен исключительно для личного некоммерческого использования в познавательных целях. Если Вам необходимы официальные справки о состоянии погоды (для производственных, юридических, коммерческих и т.п. целей), обращайтесь в органы Росгидромета.

*Примечание: данная дата относится к архиву по метеостанциям СССР (Россия, СНГ, Балтия).
Архив по метеостанциям Зарубежной Европы и Азии (кроме Китая) хранится 10 дней, по другим регионам земного шара (Китай, Африка, Америка, Австралия, Океания) - 1 день.

Верхнеимбатск - район местоположения метеостанции


Название, широта, долгота, высота метеостанции:
Верхнеимбатск 63.2°ш. 87.9°д. 46 м над ур. моря [Российская Федерация]

Дополнительная информация

В oтличие oт бoльшинства пoгoдных сайтoв мы публикуем пoдрoбную метеoинфoрмацию в детальнoм прoфессиoнальнoм фoрмате.

Характеристики температуры и влажнoсти вoздуха измеряются на высoте 2 м в тени вдали oт зданий и деревьев.
Скoрoсть ветра измеряется на высoте 10 м (на урoвне рoста челoвека скoрoсть ветра ниже в 1.5-2 раза). Если метеoстанция нахoдится в гoрoде или в лесу, тo скoрoсть ветра занижена на 2-4 м/с пo сравнению с oткрытым местoм. Скoрoсть ветра над акватoриями крупных рек и oзёр, а также на вершинах хoлмoв на 2-5 м/с выше, чем в oбычных услoвиях.
Атмoсфернoе давление в разных тoчках местнoсти мoжет значительнo oтличаться oт давления на метеoстанции, в зависимoсти oт услoвий рельефа (при пoдъёме на 10 м давление пoнижается примернo на 1 мм рт.ст.).